This is the latest recevied weather packets stored in our database for station/object W8CEN. If no packets are shown the sender has not sent any weather packets the latest 10 day(s).
| Time | Temp. | Humidity | Pressure | Rain* | Wind** | Luminosity | Snow |
|---|---|---|---|---|---|---|---|
| 1777678925 | 7.22° C | 77% | 993.6 hPa | 3.05 mm | - | 13 W/m² | - |
| 1777678623 | 7.78° C | 75% | 993.5 hPa | 1.78 mm | - | 7 W/m² | - |
| 1777678320 | 7.78° C | 75% | 993.8 hPa | 0 mm | - | 10 W/m² | - |
| 1777678015 | 7.78° C | 71% | 993.5 hPa | 0 mm | - | 22 W/m² | - |
| 1777677714 | 8.33° C | 74% | 993.6 hPa | 0 mm | - | 28 W/m² | - |
| 1777677411 | 8.33° C | 72% | 993.5 hPa | 0 mm | - | 39 W/m² | - |
| 1777677109 | 8.33° C | 73% | 993.7 hPa | 0 mm | - | 51 W/m² | - |
| 1777676807 | 8.33° C | 72% | 993.4 hPa | 0 mm | - | 44 W/m² | - |
| 1777676505 | 8.33° C | 70% | 993.6 hPa | 0 mm | - | 34 W/m² | - |
| 1777676202 | 8.33° C | 72% | 993.5 hPa | 0 mm | - | 42 W/m² | - |
| 1777675898 | 8.33° C | 70% | 993.5 hPa | 0 mm | - | 37 W/m² | - |
| 1777675596 | 8.89° C | 71% | 993.5 hPa | 0 mm | - | 35 W/m² | - |
| 1777675293 | 8.89° C | 71% | 993.3 hPa | 0 mm | - | 52 W/m² | - |
| 1777674989 | 8.89° C | 70% | 993.5 hPa | 0 mm | - | 55 W/m² | - |
| 1777674686 | 8.89° C | 70% | 993.4 hPa | 0 mm | - | 60 W/m² | - |
| 1777674388 | 9.44° C | 69% | 993.5 hPa | 0 mm | - | 58 W/m² | - |
| 1777674080 | 9.44° C | 70% | 993.3 hPa | 0 mm | - | 63 W/m² | - |
| 1777673775 | 9.44° C | 72% | 993.4 hPa | 0 mm | - | 77 W/m² | - |
| 1777673473 | 9.44° C | 68% | 993.4 hPa | 0 mm | - | 85 W/m² | - |
| 1777673171 | 9.44° C | 67% | 993.3 hPa | 0 mm | - | 98 W/m² | - |
| 1777672868 | 9.44° C | 66% | 993.2 hPa | 0 mm | - | 112 W/m² | - |
| 1777672564 | 9.44° C | 69% | 993.2 hPa | 0 mm | - | 130 W/m² | - |
| 1777672259 | 9.44° C | 68% | 993.3 hPa | 0 mm | - | 155 W/m² | - |
| 1777671954 | 9.44° C | 68% | 993.3 hPa | 0 mm | - | 187 W/m² | - |
| 1777671650 | 10° C | 68% | 993.3 hPa | 0 mm | - | 177 W/m² | - |
* Rain latest hour (hover to see other rain measurements)
** Current wind speed in m/s (hover to see current wind gust speed)